Bennett, CO

3:56 AM MST on January 19, 2017 (GMT -0700)
Front Range

Weather History for KFTG - March, 2013

Change the Weather History Date:

Friday, March 29, 2013

  Actual Average (KDEN) Record (KDEN)
Temperature  
Mean Temperature 54 °F -  
Max Temperature 66 °F 52 °F 79 °F (1967)
Min Temperature 41 °F 29 °F 2 °F (1886)
Degree Days  
Heating Degree Days 12    
Growing Degree Days 4 (Base 50)    
Moisture  
Dew Point 33 °F    
Average Humidity 54    
Maximum Humidity 76    
Minimum Humidity 24    
Precipitation  
Precipitation 0.00 in - - ()
Sea Level Pressure  
Sea Level Pressure 30.12 in    
Wind  
Wind Speed 9 mph (SW)    
Max Wind Speed 16 mph    
Max Gust Speed -    
Visibility 10 miles    
Events      
Averages and records for this station are not official NWS values.
T = Trace of Precipitation, MM = Missing Value Source: NWS Daily Summary

Daily Weather History Graph

Daily Weather History Graph

Search for Another Location

Airport or City:

Trip Planner

Search our weather history database for the weather conditions in past years. The results will help you decide how hot, cold, wet, or windy it might be!

Date:

Astronomy

Mar. 29, 2013 Rise Set
Actual Time 6:46 AM MDT 7:19 PM MDT
Civil Twilight 6:19 AM MDT 7:46 PM MDT
Nautical Twilight 5:47 AM MDT 8:18 PM MDT
Astronomical Twilight 5:14 AM MDT 8:51 PM MDT
Moon 10:22 PM MDT (3/29) 7:57 AM MDT (3/29)
Length of Visible Light 13h 27m
Length of Day
12h 33m
Waning Gibbous, 93% of the Moon is Illuminated
Mar 29
Waning Gibbous
Apr 2
Last Quarter
Apr 10
New
Apr 18
First Quarter
Apr 25
Full

Hourly Weather History & Observations

Time (MDT) Temp. Windchill Dew Point Humidity Pressure Visibility Wind Dir Wind Speed Gust Speed Precip Events Conditions
12:36 AM 44.6 °F 40.2 °F 35.6 °F 71% 30.13 in 10.0 mi South 8.1 mph - N/A   Mostly Cloudy
1:22 AM 41.0 °F 34.7 °F 33.8 °F 76% 30.12 in 10.0 mi SSW 10.4 mph - N/A   Clear
2:07 AM 41.0 °F 37.1 °F 33.8 °F 76% 30.12 in 10.0 mi South 5.8 mph - N/A   Clear
2:53 AM 44.6 °F 39.7 °F 32.0 °F 61% 30.12 in 10.0 mi SSW 9.2 mph - N/A   Clear
4:07 AM 44.6 °F 39.2 °F 32.0 °F 61% 30.10 in 10.0 mi SW 10.4 mph - N/A   Clear
5:10 AM 44.6 °F 40.2 °F 32.0 °F 61% 30.10 in 10.0 mi WSW 8.1 mph - N/A   Clear
6:57 AM 44.6 °F 38.8 °F 32.0 °F 61% 30.12 in 10.0 mi SW 11.5 mph - N/A   Clear
6:58 AM 44.6 °F 38.8 °F 32.0 °F 61% 30.12 in 10.0 mi SW 11.5 mph - N/A   Clear
8:50 AM 50.0 °F - 35.6 °F 58% 30.13 in 50.0 mi West 4.6 mph - N/A   Mostly Cloudy
9:51 AM 55.4 °F - 35.6 °F 47% 30.13 in 50.0 mi West 10.4 mph - N/A   Mostly Cloudy
10:50 AM 59.0 °F - 35.6 °F 42% 30.13 in 50.0 mi West 16.1 mph - N/A   Mostly Cloudy
11:47 AM 62.6 °F - 30.2 °F 30% 30.12 in 50.0 mi West 16.1 mph - N/A   Mostly Cloudy
12:47 PM 64.4 °F - 28.4 °F 26% 30.12 in 50.0 mi WNW 11.5 mph - N/A   Mostly Cloudy
1:47 PM 66.2 °F - 30.2 °F 26% 30.09 in 50.0 mi NW 10.4 mph - N/A   Mostly Cloudy
2:52 PM 66.2 °F - 28.4 °F 24% 30.07 in 50.0 mi WNW 9.2 mph - N/A   Mostly Cloudy
3:47 PM 66.2 °F - 28.4 °F 24% 30.06 in 50.0 mi West 11.5 mph - N/A   Mostly Cloudy
9:18 PM 48.2 °F - 35.6 °F 62% 30.12 in 10.0 mi SSE 5.8 mph - N/A   Clear
9:37 PM 48.2 °F - 35.6 °F 62% 30.13 in 10.0 mi South 3.5 mph - N/A   Clear
9:57 PM 46.4 °F 43.5 °F 35.6 °F 66% 30.13 in 10.0 mi South 5.8 mph - N/A   Scattered Clouds
10:18 PM 46.4 °F 42.4 °F 33.8 °F 62% 30.13 in 10.0 mi SSW 8.1 mph - N/A   Clear
10:38 PM 50.0 °F - 33.8 °F 54% 30.13 in 10.0 mi SSW 10.4 mph - N/A   Clear
10:57 PM 50.0 °F - 33.8 °F 54% 30.13 in 10.0 mi SW 9.2 mph - N/A   Clear
11:18 PM 46.4 °F 41.5 °F 33.8 °F 62% 30.14 in 10.0 mi WSW 10.4 mph - N/A   Clear
11:38 PM 46.4 °F 41.1 °F 33.8 °F 62% 30.13 in 10.0 mi WSW 11.5 mph - N/A   Clear
11:58 PM 46.4 °F 42.4 °F 33.8 °F 62% 30.13 in 10.0 mi WSW 8.1 mph - N/A   Clear